1494104401.16,55561,15.75,73340.8,0.39,-2.23,-1.91,0,*4F
1494104402.41,55562,15.75,73340.8,0.41,-2.07,-1.87,0,*42
1494104403.62,55563,15.75,73344.0,0.39,-1.95,-1.79,0,*45
1494104404.82,55564,15.75,73348.0,0.39,-1.91,-1.55,0,*48
1494104406.05,55565,15.75,73344.3,0.37,-1.83,-1.59,0,*48
1494104407.26,55566,15.75,73342.8,0.39,-1.55,-1.43,0,*45
1494104408.46,55567,15.75,73346.0,0.39,-1.47,-1.25,0,*47
1494104409.67,55568,15.75,73340.8,0.39,-1.43,-1.21,0,*48
1494104410.88,55569,15.75,73350.5,0.39,-1.35,-1.21,0,*48
1494104412.11,55570,15.75,73346.0,0.37,-1.39,-1.29,0,*4A
1494104413.3,55571,15.75,73344.8,0.39,-1.25,-1.21,0,*40
1494104414.48,55572,15.75,73344.3,0.39,-1.25,-1.21,0,*43
1494104415.66,55573,15.75,73342.8,0.39,-1.25,-1.17,0,*47
1494104416.85,55574,15.75,73342.0,0.39,-1.21,-1.17,0,*44
1494104418.03,55575,15.75,73342.0,0.39,-1.33,-1.17,0,*46
1494104419.24,55576,15.75,73346.3,0.39,-1.21,-1.09,0,*49
1494104420.47,55577,15.75,73348.0,0.41,-1.21,-1.05,0,*4B
1494104421.69,55578,15.75,73348.5,0.41,-1.33,-1.13,0,*40
1494104422.9,55579,15.75,73354.0,0.39,-1.43,-1.25,0,*4C
1494104424.1,55580,15.75,73354.3,0.39,-1.59,-1.35,0,*40
1494104425.3,55581,15.75,73352.3,0.39,-1.43,-1.33,0,*4C
1494104426.5,55582,15.75,73358.5,0.41,-1.51,-1.33,0,*43
1494104427.72,55583,15.75,73356.5,0.37,-1.59,-1.35,0,*4D
1494104428.93,55584,15.75,73358.5,0.39,-1.71,-1.35,0,*4E
1494104430.14,55585,15.75,73358.5,0.39,-1.43,-1.21,0,*4B
1494104431.37,55586,15.75,73356.8,0.41,-1.29,-1.05,0,*4D
1494104432.61,55587,15.75,73354.8,0.41,-1.33,-1.05,0,*47
1494104433.86,55588,15.75,73350.0,0.41,-1.39,-1.05,0,*42
1494104435.12,55589,15.75,73344.8,0.41,-1.39,-1.05,0,*43
1494104436.34,55590,15.75,73348.3,0.41,-1.33,-1.13,0,*46
1494104437.57,55591,15.75,73346.8,0.41,-1.43,-1.17,0,*44
1494104438.77,55592,15.75,73344.3,0.41,-1.51,-1.17,0,*44
1494104439.96,55593,15.75,73344.8,0.41,-1.51,-1.29,0,*48
1494104441.16,55594,15.75,73346.0,0.41,-1.51,-1.29,0,*4F
1494104442.39,55595,15.75,73348.5,0.41,-1.39,-1.29,0,*40
1494104443.58,55596,15.75,73346.3,0.41,-1.55,-1.33,0,*42
1494104444.81,55597,15.75,73344.5,0.41,-1.63,-1.39,0,*4C
1494104446.04,55598,15.75,73344.5,0.41,-1.67,-1.39,0,*47
1494104447.24,55599,15.75,73342.8,0.41,-1.79,-1.55,0,*43
1494104448.44,55600,15.75,73340.0,0.41,-1.79,-1.63,0,*45
1494104449.67,55601,15.75,73342.5,0.39,-2.11,-1.83,0,*48
1494104450.91,55602,15.75,73344.3,0.39,-2.11,-1.83,0,*4B
1494104452.11,55603,15.75,73346.8,0.39,-1.91,-1.79,0,*44
1494104453.33,55604,15.75,73346.0,0.39,-1.83,-1.71,0,*48
1494104454.51,55605,15.75,73348.8,0.39,-1.79,-1.67,0,*4B
1494104455.69,55606,15.75,73354.8,0.39,-1.79,-1.59,0,*45
1494104456.89,55607,15.75,73360.3,0.39,-1.83,-1.59,0,*41
1494104458.09,55608,15.75,73362.3,0.41,-1.79,-1.55,0,*48
1494104459.29,55609,15.75,73360.3,0.41,-1.79,-1.67,0,*48
1494104460.51,55610,15.75,73360.5,0.39,-1.83,-1.71,0,*4D
1494104461.71,55611,15.75,73362.8,0.41,-1.79,-1.63,0,*45
1494104462.91,55612,15.75,73362.0,0.39,-1.83,-1.59,0,*45
1494104464.12,55613,15.75,73360.8,0.39,-1.95,-1.71,0,*49
1494104465.33,55614,15.75,73360.5,0.39,-1.95,-1.71,0,*4E
1494104466.56,55615,15.75,73356.0,0.41,-1.87,-1.67,0,*44
1494104467.77,55616,15.75,73364.5,0.43,-1.87,-1.67,0,*45
1494104468.97,55617,15.75,73360.3,0.41,-1.75,-1.67,0,*4B
1494104470.22,55618,15.75,73360.0,0.41,-1.95,-1.87,0,*44
1494104471.47,55619,15.75,73354.3,0.41,-1.91,-1.87,0,*41
1494104472.67,55620,15.75,73356.0,0.41,-1.75,-1.75,0,*4C
1494104473.85,55621,15.75,73356.8,0.43,-1.75,-1.63,0,*48
1494104475.05,55622,15.75,73358.8,0.41,-1.63,-1.51,0,*4F
1494104476.28,55623,15.75,73358.3,0.39,-1.43,-1.35,0,*41
1494104477.52,55624,15.75,73356.0,0.39,-1.43,-1.35,0,*46
1494104478.77,55625,15.75,73354.5,0.41,-1.43,-1.39,0,*44
1494104480.0,55626,15.69,73352.0,0.41,-1.51,-1.39,0,*44
1494104481.25,55627,15.75,73356.5,0.41,-1.39,-1.39,0,*4B
1494104482.49,55628,15.69,73352.8,0.41,-1.29,-1.39,0,*45
1494104483.72,55629,15.69,73356.8,0.41,-1.33,-1.43,0,*42
1494104484.91,55630,15.75,73362.0,0.41,-1.63,-1.55,0,*48
1494104486.11,55631,15.75,73362.8,0.41,-1.63,-1.55,0,*49
1494104487.31,55632,15.75,73362.5,0.41,-1.51,-1.51,0,*4F
1494104488.57,55633,15.75,73362.5,0.41,-1.39,-1.39,0,*4E
1494104489.77,55634,15.75,73358.0,0.41,-1.29,-1.21,0,*41
1494104491.01,55635,15.75,73358.5,0.41,-1.17,-1.05,0,*4B
1494104492.26,55636,15.69,73356.8,0.41,-1.05,-1.05,0,*4B
1494104493.5,55637,15.69,73356.5,0.41,-0.93,-0.93,0,*4A
1494104494.74,55638,15.75,73362.0,0.41,-1.01,-0.93,0,*7F
1494104495.99,55639,15.69,73362.0,0.41,-1.01,-1.01,0,*44
1494104497.22,55640,15.75,73362.5,0.43,-1.13,-1.05,0,*4F
1494104498.47,55641,15.75,73362.5,0.41,-1.13,-1.05,0,*4C
1494104499.71,55642,15.69,73362.0,0.41,-1.39,-1.21,0,*41
1494104500.91,55643,15.75,73360.3,0.41,-1.33,-1.21,0,*4A
1494104502.15,55644,15.69,73358.0,0.41,-1.39,-1.21,0,*47
1494104503.35,55645,15.69,73358.3,0.41,-1.33,-1.17,0,*49
1494104504.58,55646,15.69,73358.8,0.41,-1.29,-1.13,0,*45
1494104505.78,55647,15.75,73360.0,0.41,-1.29,-1.33,0,*46
1494104506.96,55648,15.69,73358.8,0.43,-1.21,-1.21,0,*40
1494104508.19,55649,15.69,73358.5,0.41,-1.21,-1.13,0,*42
1494104509.4,55650,15.69,73356.0,0.41,-1.29,-1.21,0,*43
1494104510.6,55651,15.69,73352.5,0.41,-1.33,-1.17,0,*4C
1494104511.85,55652,15.69,73354.8,0.41,-1.43,-1.39,0,*44
1494104513.08,55653,15.69,73354.0,0.41,-1.51,-1.39,0,*46
1494104514.3,55654,15.69,73358.3,0.41,-1.63,-1.43,0,*4D
1494104515.55,55655,15.69,73354.8,0.41,-1.95,-1.87,0,*4D
1494104516.8,55656,15.69,73356.3,0.41,-1.91,-1.87,0,*4A
1494104518.0,55657,15.69,73352.5,0.41,-1.75,-1.55,0,*4E
1494104519.23,55658,15.69,73354.8,0.41,-1.87,-1.79,0,*42
1494104520.43,55659,15.69,73354.8,0.41,-1.75,-1.63,0,*45
1494104521.63,55660,15.69,73354.0,0.41,-1.33,-1.29,0,*43
1494104522.88,55661,15.69,73354.3,0.41,-1.05,-1.13,0,*4E
1494104524.13,55662,15.69,73352.0,0.41,-1.05,-0.93,0,*74
1494104525.38,55663,15.69,73354.5,0.41,-1.05,-0.89,0,*7E
1494104526.62,55664,15.69,73348.5,0.41,-1.13,-0.93,0,*75
1494104527.83,55665,15.69,73350.5,0.43,-1.29,-1.05,0,*41
1494104529.08,55666,15.69,73348.3,0.41,-1.43,-1.05,0,*4C
1494104530.31,55667,15.69,73352.0,0.41,-1.43,-1.17,0,*4E
1494104531.51,55668,15.69,73354.0,0.41,-1.63,-1.21,0,*46
1494104532.71,55669,15.69,73354.0,0.41,-1.55,-1.33,0,*41
1494104533.9,55670,15.69,73358.8,0.41,-1.79,-1.55,0,*47
1494104535.13,55671,15.69,73364.3,0.41,-1.87,-1.63,0,*42
1494104536.36,55672,15.69,73360.8,0.41,-1.87,-1.67,0,*45
1494104537.54,55673,15.69,73352.3,0.43,-1.75,-1.55,0,*4A
1494104538.76,55674,15.69,73356.0,0.41,-1.91,-1.75,0,*47
1494104539.96,55675,15.75,73356.3,0.41,-1.79,-1.63,0,*47
1494104541.16,55676,15.69,73354.5,0.41,-1.63,-1.51,0,*4E
1494104542.36,55677,15.69,73354.0,0.41,-1.55,-1.51,0,*4A
1494104543.56,55678,15.69,73354.8,0.41,-1.67,-1.55,0,*40
1494104544.76,55679,15.69,73352.3,0.41,-1.67,-1.67,0,*40
1494104545.96,55680,15.69,73350.8,0.41,-1.63,-1.51,0,*47
1494104547.16,55681,15.69,73354.0,0.41,-1.63,-1.51,0,*46
1494104548.36,55682,15.69,73350.5,0.41,-1.67,-1.55,0,*45
1494104549.54,55683,15.69,73348.0,0.39,-1.71,-1.55,0,*4C
1494104550.74,55684,15.69,73352.8,0.39,-1.71,-1.67,0,*4A
1494104551.92,55685,15.69,73352.5,0.39,-1.71,-1.55,0,*4A
1494104553.13,55686,15.69,73358.0,0.39,-1.67,-1.47,0,*4D
1494104554.33,55687,15.69,73354.5,0.39,-1.59,-1.47,0,*41
1494104555.55,55688,15.69,73352.5,0.37,-1.59,-1.47,0,*40
1494104556.79,55689,15.69,73350.8,0.39,-1.47,-1.35,0,*45
1494104557.99,55690,15.69,73350.0,0.39,-1.55,-1.43,0,*4F
1494104559.2,55691,15.69,73348.8,0.39,-1.55,-1.47,0,*4A
1494104560.41,55692,15.69,73346.0,0.39,-1.55,-1.43,0,*4D
1494104561.61,55693,15.69,73350.5,0.39,-1.47,-1.33,0,*48
1494104562.82,55694,15.69,73350.3,0.39,-1.43,-1.33,0,*4B
1494104564.05,55695,15.69,73350.3,0.41,-1.39,-1.29,0,*43
1494104565.25,55696,15.69,73354.5,0.39,-1.43,-1.25,0,*4E
1494104566.46,55697,15.69,73354.0,0.39,-1.43,-1.33,0,*48
1494104567.66,55698,15.69,73352.8,0.39,-1.43,-1.33,0,*47
1494104568.87,55699,15.69,73358.0,0.39,-1.47,-1.33,0,*42
1494104570.07,55700,15.69,73356.5,0.39,-1.43,-1.33,0,*47
1494104571.25,55701,15.69,73354.8,0.39,-1.33,-1.25,0,*46
1494104572.45,55702,15.69,73354.5,0.39,-1.35,-1.25,0,*43
1494104573.69,55703,15.69,73354.0,0.39,-1.43,-1.35,0,*42
1494104574.92,55704,15.69,73354.5,0.39,-1.35,-1.35,0,*44
1494104576.11,55705,15.69,73358.3,0.39,-1.33,-1.21,0,*46
1494104577.29,55706,15.69,73356.3,0.39,-1.21,-1.17,0,*43
1494104578.53,55707,15.69,73356.5,0.39,-1.05,-1.09,0,*4B
1494104579.75,55708,15.69,73358.0,0.39,-1.05,-0.97,0,*72
1494104580.98,55709,15.69,73358.0,0.39,-1.05,-0.97,0,*73
1494104582.2,55710,15.69,73358.8,0.39,-0.97,-0.85,0,*42
1494104583.42,55711,15.69,73356.3,0.39,-0.97,-0.85,0,*43
1494104584.65,55712,15.69,73358.5,0.39,-1.05,-0.93,0,*7D
1494104585.9,55713,15.69,73356.0,0.37,-1.13,-1.09,0,*47
1494104587.11,55714,15.69,73352.8,0.39,-1.25,-1.05,0,*47
1494104588.31,55715,15.69,73354.8,0.39,-1.25,-1.05,0,*46
1494104589.54,55716,15.69,73352.3,0.37,-1.25,-1.05,0,*4B
1494104590.75,55717,15.69,73356.3,0.39,-1.25,-1.05,0,*44
1494104591.95,55718,15.69,73356.3,0.39,-1.25,-1.09,0,*47
1494104593.16,55719,15.69,73356.5,0.39,-1.25,-1.09,0,*46
1494104594.34,55720,15.69,73356.5,0.39,-1.33,-1.17,0,*44
1494104595.54,55721,15.69,73356.3,0.39,-1.35,-1.25,0,*42
1494104596.77,55722,15.69,73356.8,0.39,-1.35,-1.09,0,*4F
1494104597.97,55723,15.69,73358.0,0.39,-1.25,-1.09,0,*4F
1494104599.15,55724,15.69,73356.3,0.39,-1.25,-1.17,0,*47
1494104600.36,55725,15.69,73350.3,0.39,-1.35,-1.17,0,*47
1494104601.57,55726,15.69,73350.3,0.39,-1.35,-1.21,0,*41
1494104602.75,55727,15.69,73348.3,0.39,-1.25,-1.21,0,*41
1494104603.96,55728,15.69,73344.3,0.39,-1.33,-1.09,0,*43
1494104605.16,55729,15.69,73348.0,0.39,-1.25,-1.13,0,*4E
1494104606.37,55730,15.69,73346.5,0.39,-1.21,-1.09,0,*49
1494104607.57,55731,15.69,73348.3,0.39,-1.35,-1.17,0,*42
1494104608.78,55732,15.69,73344.8,0.39,-1.35,-1.21,0,*44
1494104609.95,55733,15.69,73348.3,0.39,-1.59,-1.25,0,*4B
1494104611.16,55734,15.69,73350.0,0.39,-1.67,-1.35,0,*40
1494104612.37,55735,15.69,73350.8,0.39,-1.71,-1.43,0,*47
1494104613.58,55736,15.69,73346.0,0.37,-1.71,-1.51,0,*49
1494104614.78,55737,15.69,73344.8,0.39,-1.59,-1.35,0,*4E
1494104616.01,55738,15.69,73344.8,0.37,-1.63,-1.35,0,*46
1494104617.22,55739,15.69,73346.5,0.39,-1.71,-1.35,0,*4A
1494104618.45,55740,15.69,73344.0,0.37,-1.83,-1.59,0,*4D
1494104619.68,55741,15.69,73352.0,0.37,-1.87,-1.59,0,*48
1494104620.88,55742,15.69,73356.0,0.39,-1.67,-1.43,0,*40
1494104622.11,55743,15.69,73356.3,0.37,-1.63,-1.39,0,*46
1494104623.35,55744,15.69,73352.3,0.37,-1.71,-1.47,0,*4B
1494104624.58,55745,15.69,73354.3,0.37,-1.71,-1.47,0,*4A
1494104625.79,55746,15.69,73354.3,0.39,-1.67,-1.47,0,*40
1494104627.03,55747,15.69,73352.3,0.39,-1.47,-1.47,0,*43
1494104628.21,55748,15.69,73352.3,0.39,-1.33,-1.33,0,*4C
1494104629.43,55749,15.69,73348.5,0.37,-1.25,-1.13,0,*46
1494104630.68,55750,15.69,73352.5,0.37,-1.13,-1.13,0,*4B
1494104631.91,55751,15.69,73354.3,0.37,-1.21,-1.01,0,*48
1494104633.12,55752,15.69,73354.0,0.39,-1.21,-1.05,0,*41
1494104634.35,55753,15.69,73350.8,0.37,-1.25,-1.01,0,*4E
1494104635.58,55754,15.69,73350.3,0.37,-1.21,-1.09,0,*45
1494104636.81,55755,15.69,73354.3,0.37,-1.21,-1.01,0,*4C
1494104638.04,55756,15.69,73352.8,0.37,-1.29,-1.01,0,*47
1494104639.27,55757,15.69,73348.8,0.39,-1.35,-1.05,0,*41
1494104640.47,55758,15.69,73348.3,0.37,-1.51,-1.21,0,*44
1494104641.67,55759,15.69,73344.3,0.37,-1.59,-1.25,0,*49
1494104642.87,55760,15.69,73342.3,0.39,-1.47,-1.25,0,*42
1494104644.1,55761,15.69,73344.0,0.37,-1.75,-1.47,0,*48
1494104645.34,55762,15.69,73344.3,0.37,-1.99,-1.75,0,*48
1494104646.57,55763,15.69,73340.3,0.39,-2.07,-1.83,0,*4A
1494104647.81,55764,15.69,73344.3,0.39,-2.11,-1.91,0,*49
1494104649.04,55765,15.69,73340.0,0.37,-2.63,-2.27,0,*4D
1494104650.27,55766,15.69,73344.5,0.37,-3.11,-2.59,0,*43
1494104651.48,55767,15.69,73348.5,0.39,-3.31,-2.71,0,*44
1494104652.66,55768,15.69,73350.3,0.39,-3.23,-2.83,0,*45
1494104653.87,55769,15.69,73350.3,0.39,-2.95,-2.59,0,*4F
1494104655.08,55770,15.69,73354.3,0.39,-2.23,-2.11,0,*46
1494104656.3,55771,15.69,73348.0,0.37,-1.59,-1.39,0,*4E
1494104657.53,55772,15.69,73352.8,0.39,-1.09,-1.09,0,*45
1494104658.77,55773,15.69,73358.5,0.37,-1.09,-0.97,0,*7C
1494104660.02,55774,15.69,73356.0,0.37,-1.09,-0.97,0,*7B
1494104661.25,55775,15.69,73356.8,0.39,-1.05,-1.05,0,*42
1494104662.46,55776,15.69,73356.5,0.39,-1.21,-1.09,0,*4B
1494104663.66,55777,15.69,73352.0,0.39,-1.35,-1.17,0,*40
1494104664.87,55778,15.69,73354.3,0.39,-1.35,-1.25,0,*4E
1494104666.1,55779,15.69,73354.5,0.37,-1.63,-1.39,0,*4F
1494104667.3,55780,15.69,73352.3,0.39,-1.95,-1.59,0,*48
1494104668.48,55781,15.69,73356.5,0.39,-2.19,-1.79,0,*4C
1494104669.68,55782,15.69,73358.0,0.39,-2.31,-1.95,0,*47
1494104670.88,55783,15.69,73354.5,0.39,-2.59,-2.19,0,*4F
1494104672.11,55784,15.69,73348.3,0.37,-2.71,-2.23,0,*45
1494104673.34,55785,15.69,73348.8,0.39,-2.47,-1.95,0,*41
1494104674.54,55786,15.69,73344.5,0.39,-2.27,-1.95,0,*44
1494104675.75,55787,15.69,73348.3,0.39,-2.23,-1.91,0,*45
1494104676.95,55788,15.69,73348.0,0.39,-2.23,-1.91,0,*4A
1494104678.18,55789,15.69,73350.3,0.37,-2.35,-1.99,0,*4A
1494104679.41,55790,15.69,73344.0,0.39,-2.59,-1.99,0,*46
1494104680.62,55791,15.69,73346.5,0.39,-2.59,-2.19,0,*4C
1494104681.8,55792,15.69,73352.3,0.39,-2.83,-2.19,0,*48
1494104682.98,55793,15.69,73348.3,0.39,-2.95,-2.35,0,*40
1494104684.24,55794,15.69,73346.5,0.37,-2.71,-2.47,0,*46
1494104685.45,55795,15.69,73350.3,0.39,-2.67,-2.31,0,*4F
1494104686.68,55796,15.69,73348.5,0.37,-2.63,-2.27,0,*41
1494104687.88,55797,15.69,73356.0,0.37,-2.39,-2.15,0,*4E
1494104689.06,55798,15.69,73354.3,0.39,-2.43,-2.19,0,*4E
1494104690.29,55799,15.69,73354.3,0.39,-2.55,-2.11,0,*40
1494104691.5,55800,15.69,73352.5,0.39,-2.55,-2.23,0,*4E
1494104692.73,55801,15.69,73352.8,0.37,-2.75,-2.39,0,*48
1494104693.94,55802,15.69,73358.3,0.39,-2.67,-2.31,0,*4E
1494104695.12,55803,15.69,73356.8,0.39,-2.31,-2.19,0,*46
1494104696.38,55804,15.69,73356.0,0.37,-1.95,-1.87,0,*46
1494104697.6,55805,15.69,73356.0,0.37,-1.95,-1.63,0,*4D
1494104698.81,55806,15.69,73356.0,0.39,-1.83,-1.55,0,*42
1494104700.02,55807,15.69,73354.8,0.39,-1.67,-1.43,0,*4E
1494104701.25,55808,15.69,73356.3,0.37,-1.83,-1.51,0,*46
1494104702.46,55809,15.69,73360.3,0.39,-1.95,-1.71,0,*4C
1494104703.68,55810,15.69,73356.0,0.37,-2.15,-1.83,0,*4C
1494104704.86,55811,15.69,73352.3,0.39,-2.19,-1.79,0,*4A
1494104706.07,55812,15.69,73352.3,0.39,-2.19,-1.83,0,*4C
1494104707.33,55813,15.69,73348.8,0.37,-2.47,-1.99,0,*43
1494104708.56,55814,15.69,73350.5,0.39,-2.55,-2.11,0,*4A
1494104709.79,55815,15.69,73352.3,0.39,-2.67,-2.11,0,*4A
1494104711.0,55816,15.69,73350.5,0.37,-2.91,-2.19,0,*46
1494104712.2,55817,15.69,73348.3,0.37,-3.11,-2.23,0,*47
1494104713.44,55818,15.69,73350.5,0.39,-3.47,-2.55,0,*44
1494104714.62,55819,15.69,73340.8,0.39,-3.87,-3.07,0,*4F
1494104715.82,55820,15.69,73342.5,0.39,-4.25,-3.71,0,*4B
1494104717.03,55821,15.69,73346.3,0.37,-4.57,-4.05,0,*45
1494104718.23,55822,15.69,73344.0,0.37,-4.53,-4.09,0,*4E
1494104719.43,55823,15.69,73340.3,0.37,-4.41,-4.17,0,*43
1494104720.63,55824,15.69,73342.8,0.37,-4.45,-4.29,0,*4D
1494104721.86,55825,15.69,73340.5,0.37,-5.35,-5.03,0,*43
1494104723.12,55826,15.69,73338.8,0.37,-4.89,-5.03,0,*46
1494104724.36,55827,15.69,73340.0,0.39,-5.03,-5.15,0,*4D
1494104725.57,55828,15.69,73342.8,0.39,-4.65,-5.15,0,*43
1494104726.77,55829,15.69,73338.3,0.39,-4.09,-4.77,0,*4D
1494104728.01,55830,15.69,73342.3,0.37,-4.53,-5.07,0,*42
1494104729.24,55831,15.69,73342.3,0.37,-5.27,-5.55,0,*46
1494104730.43,55832,15.69,73342.3,0.39,-5.55,-6.31,0,*4F
1494104731.69,55833,15.69,73344.8,0.37,-5.31,-5.65,0,*40
1494104732.89,55834,15.69,73340.0,0.37,-4.45,-4.53,0,*41
1494104734.11,55835,15.69,73340.8,0.37,-3.75,-3.79,0,*4B
1494104735.35,55836,15.69,73336.3,0.37,-3.47,-3.47,0,*44
1494104736.6,55837,15.69,73338.8,0.37,-3.59,-3.63,0,*4C
1494104737.83,55838,15.69,73338.5,0.37,-3.35,-3.51,0,*48
1494104739.08,55839,15.69,73340.8,0.37,-3.67,-3.63,0,*4F
1494104740.29,55840,15.69,73342.3,0.39,-4.01,-4.09,0,*43
1494104741.49,55841,15.69,73342.0,0.37,-4.13,-4.17,0,*40
1494104742.7,55842,15.69,73344.3,0.39,-4.01,-4.09,0,*41
1494104743.93,55843,15.69,73344.8,0.37,-3.79,-3.67,0,*49
1494104745.16,55844,15.69,73344.3,0.37,-3.91,-3.67,0,*48
1494104746.39,55845,15.69,73344.3,0.37,-4.13,-3.67,0,*44
1494104747.56,55846,15.69,73346.8,0.39,-4.13,-3.83,0,*43
1494104748.79,55847,15.69,73344.0,0.39,-3.71,-3.59,0,*46
1494104749.97,55848,15.69,73340.3,0.39,-3.19,-3.23,0,*4A
1494104751.16,55849,15.69,73342.0,0.37,-3.23,-3.23,0,*4C
1494104752.36,55850,15.69,73340.5,0.37,-3.11,-3.11,0,*44
1494104753.55,55851,15.69,73342.3,0.39,-3.07,-2.99,0,*4D
1494104754.8,55852,15.69,73340.8,0.37,-2.75,-2.63,0,*41
1494104756.04,55853,15.69,73334.3,0.37,-2.47,-2.27,0,*41
1494104757.23,55854,15.69,73332.3,0.37,-2.39,-2.27,0,*4F
1494104758.43,55855,15.69,73330.5,0.37,-2.39,-2.15,0,*4F
1494104759.64,55856,15.69,73332.0,0.39,-2.67,-2.19,0,*45
1494104760.82,55857,15.69,73332.3,0.39,-3.07,-2.35,0,*4D
1494104762.03,55858,15.69,73332.3,0.39,-3.11,-2.47,0,*40
1494104763.26,55859,15.69,73338.3,0.37,-3.11,-2.63,0,*49
1494104764.5,55860,15.69,73342.3,0.37,-3.59,-2.99,0,*4A
1494104765.7,55861,15.69,73338.8,0.37,-3.87,-3.35,0,*4F
1494104766.91,55862,15.69,73344.0,0.37,-4.25,-3.75,0,*47
1494104768.12,55863,15.69,73346.5,0.37,-4.57,-3.83,0,*4A
1494104769.35,55864,15.69,73344.3,0.37,-4.01,-3.23,0,*44
1494104770.54,55865,15.69,73346.5,0.37,-4.13,-3.23,0,*46
1494104771.75,55866,15.69,73346.3,0.39,-3.71,-2.99,0,*48
1494104772.99,55867,15.69,73350.3,0.37,-3.35,-2.63,0,*42
1494104774.2,55868,15.69,73352.8,0.39,-2.71,-2.23,0,*46
1494104775.42,55869,15.69,73346.0,0.37,-2.59,-2.15,0,*46
1494104776.66,55870,15.69,73346.5,0.39,-2.07,-1.91,0,*44
1494104777.84,55871,15.69,73350.3,0.39,-1.71,-1.59,0,*43
1494104779.03,55872,15.69,73348.8,0.39,-1.33,-1.21,0,*49
1494104780.26,55873,15.69,73350.5,0.37,-1.35,-1.21,0,*40
1494104781.46,55874,15.69,73350.5,0.37,-1.63,-1.25,0,*40
1494104782.64,55875,15.69,73354.0,0.39,-2.23,-1.67,0,*4E
1494104783.87,55876,15.69,73354.5,0.37,-2.87,-2.11,0,*4F
1494104785.13,55877,15.69,73354.8,0.37,-3.51,-2.47,0,*47
1494104786.34,55878,15.69,73352.8,0.39,-4.09,-2.71,0,*49
1494104787.54,55879,15.69,73354.8,0.37,-4.41,-3.23,0,*4C
1494104788.72,55880,15.69,73350.8,0.39,-3.95,-3.07,0,*4C
1494104789.93,55881,15.69,73352.8,0.39,-3.31,-2.59,0,*49
1494104791.11,55882,15.69,73350.5,0.39,-2.83,-2.23,0,*4F
1494104792.32,55883,15.69,73348.8,0.39,-2.71,-2.19,0,*4A
1494104793.5,55884,15.69,73350.3,0.39,-2.83,-2.23,0,*49
1494104794.71,55885,15.69,73348.8,0.39,-3.23,-2.47,0,*41
1494104795.91,55886,15.69,73350.5,0.41,-4.09,-2.95,0,*4D
1494104797.11,55887,15.69,73352.0,0.41,-4.99,-3.79,0,*46
1494104798.34,55888,15.69,73350.3,0.39,-5.93,-4.73,0,*40
1494104799.55,55889,15.69,73350.5,0.39,-6.73,-5.31,0,*4B
1494104800.79,55890,15.69,73354.8,0.37,-7.43,-6.35,0,*48
1494104801.99,55891,15.69,73356.0,0.39,-7.01,-6.85,0,*4A
1494104803.2,55892,15.69,73354.3,0.39,-4.41,-4.85,0,*4C
1494104804.43,55893,15.69,73356.0,0.39,-3.55,-3.43,0,*42
1494104805.61,55894,15.69,73352.5,0.39,-3.75,-3.15,0,*44
1494104806.81,55895,15.69,73356.0,0.37,-3.87,-3.23,0,*43
1494104807.99,55896,15.69,73354.5,0.39,-4.09,-3.19,0,*46
1494104809.17,55897,15.69,73356.3,0.39,-3.95,-3.19,0,*45
1494104810.38,55898,15.69,73348.8,0.39,-3.19,-2.71,0,*41
1494104811.58,55899,15.69,73352.8,0.39,-2.55,-2.43,0,*48
1494104812.82,55900,15.69,73354.8,0.39,-1.99,-1.91,0,*46
1494104814.03,55901,15.69,73356.5,0.39,-1.71,-1.43,0,*4E
1494104815.24,55902,15.69,73354.8,0.39,-1.71,-1.35,0,*4C
1494104816.48,55903,15.69,73356.0,0.39,-1.83,-1.35,0,*40
1494104817.68,55904,15.69,73358.5,0.37,-2.39,-1.75,0,*4F
1494104818.9,55905,15.69,73354.8,0.39,-2.67,-1.95,0,*45
1494104820.13,55906,15.69,73352.0,0.39,-2.59,-1.99,0,*47
1494104821.36,55907,15.69,73352.8,0.39,-2.67,-2.11,0,*48
1494104822.57,55908,15.69,73350.0,0.39,-2.59,-2.19,0,*42
1494104823.78,55909,15.69,73352.3,0.39,-2.31,-1.91,0,*4E
1494104824.98,55910,15.69,73348.3,0.39,-1.95,-1.71,0,*45
1494104826.19,55911,15.69,73350.5,0.39,-1.91,-1.59,0,*4A
1494104827.39,55912,15.69,73350.5,0.39,-1.91,-1.55,0,*45
1494104828.62,55913,15.69,73350.3,0.37,-2.03,-1.63,0,*47
1494104829.86,55914,15.69,73350.5,0.39,-2.47,-1.83,0,*40
1494104831.06,55915,15.69,73350.0,0.41,-3.27,-2.39,0,*4B
1494104832.25,55916,15.69,73352.5,0.39,-3.75,-2.87,0,*45
1494104833.46,55917,15.69,73352.0,0.39,-3.95,-3.43,0,*43
1494104834.64,55918,15.69,73350.0,0.39,-3.35,-3.07,0,*46
1494104835.85,55919,15.69,73350.3,0.39,-2.99,-2.67,0,*47
1494104837.03,55920,15.69,73346.3,0.39,-2.79,-2.43,0,*45
1494104838.21,55921,15.69,73346.3,0.39,-2.79,-2.43,0,*44
1494104839.39,55922,15.69,73346.3,0.39,-2.87,-2.43,0,*46
1494104840.6,55923,15.69,73346.8,0.39,-3.35,-2.71,0,*4E
1494104841.83,55924,15.69,73346.8,0.41,-3.67,-3.27,0,*43
1494104843.05,55925,15.69,73350.8,0.43,-3.67,-3.51,0,*41
1494104844.26,55926,15.69,73352.0,0.43,-3.79,-3.67,0,*48
1494104845.46,55927,15.69,73352.0,0.41,-4.05,-3.83,0,*4D
1494104846.63,55928,15.69,73354.5,0.43,-4.57,-4.45,0,*4A
1494104847.88,55929,15.69,73356.3,0.41,-4.81,-4.81,0,*4A
1494104849.09,55930,15.69,73356.0,0.41,-4.57,-4.37,0,*44
1494104850.28,55931,15.69,73358.5,0.41,-4.37,-4.17,0,*41
1494104851.49,55932,15.69,73358.5,0.41,-4.21,-3.91,0,*4C
1494104852.68,55933,15.69,73356.0,0.41,-4.37,-3.83,0,*49
1494104853.87,55934,15.69,73354.5,0.41,-4.45,-3.83,0,*4B
1494104855.1,55935,15.69,73352.8,0.41,-4.73,-3.91,0,*4C
1494104856.3,55936,15.69,73348.0,0.41,-4.57,-3.91,0,*49
1494104857.51,55937,15.69,73346.8,0.41,-4.45,-3.71,0,*45
1494104858.69,55938,15.69,73348.3,0.43,-5.35,-4.21,0,*4C
1494104859.9,55939,15.69,73346.3,0.41,-5.47,-4.57,0,*4B
1494104861.13,55940,15.69,73348.0,0.41,-5.51,-4.69,0,*4F
1494104862.36,55941,15.69,73346.3,0.41,-5.65,-4.61,0,*41
1494104863.59,55942,15.69,73340.5,0.41,-4.81,-4.21,0,*4D
1494104864.8,55943,15.69,73340.5,0.39,-5.11,-4.37,0,*4C
1494104865.99,55944,15.69,73338.5,0.39,-4.99,-4.01,0,*4F
1494104867.19,55945,15.69,73338.3,0.39,-4.41,-3.71,0,*4B
1494104868.37,55946,15.69,73342.3,0.39,-4.09,-3.35,0,*44
1494104869.58,55947,15.69,73342.0,0.37,-4.05,-3.27,0,*44
1494104870.76,55948,15.69,73336.0,0.39,-4.21,-3.19,0,*4E
1494104871.94,55949,15.69,73338.0,0.39,-4.65,-3.31,0,*45
1494104873.14,55950,15.69,73336.3,0.39,-4.65,-3.55,0,*4F
1494104874.36,55951,15.69,73330.5,0.37,-4.53,-3.51,0,*41
1494104875.53,55952,15.69,73336.3,0.39,-4.37,-3.35,0,*4C
1494104876.73,55953,15.69,73334.8,0.39,-4.53,-3.43,0,*4E
1494104877.92,55954,15.69,73340.3,0.39,-4.65,-3.55,0,*4B
1494104879.1,55955,15.69,73342.0,0.39,-4.99,-3.75,0,*4B
1494104880.3,55956,15.69,73342.0,0.39,-5.27,-3.87,0,*41
1494104881.51,55957,15.69,73342.0,0.39,-5.03,-3.75,0,*4B
1494104882.71,55958,15.69,73340.3,0.39,-4.65,-3.55,0,*47
1494104883.91,55959,15.69,73340.0,0.39,-3.55,-3.11,0,*42
1494104885.12,55960,15.69,73338.3,0.39,-2.55,-2.35,0,*4E
1494104886.37,55961,15.69,73340.3,0.37,-2.11,-1.95,0,*48
1494104887.59,55962,15.69,73342.5,0.39,-2.07,-1.67,0,*4F
1494104888.79,55963,15.69,73340.8,0.39,-2.35,-1.83,0,*45
1494104889.98,55964,15.69,73346.5,0.39,-3.11,-2.23,0,*4C
1494104891.18,55965,15.69,73344.0,0.37,-4.13,-2.99,0,*47
1494104892.37,55966,15.69,73342.8,0.39,-3.87,-2.99,0,*40
1494104893.55,55967,15.69,73340.8,0.39,-4.13,-3.19,0,*42
1494104894.73,55968,15.69,73340.5,0.39,-4.25,-3.19,0,*48
1494104895.93,55969,15.69,73342.8,0.37,-4.13,-3.15,0,*4E
1494104897.11,55970,15.69,73342.0,0.39,-4.21,-3.19,0,*45
1494104898.31,55971,15.69,73332.0,0.37,-4.17,-3.03,0,*44
1494104899.5,55972,15.69,73336.5,0.39,-3.83,-2.87,0,*4E
1494104900.69,55973,15.69,73338.3,0.39,-3.75,-2.87,0,*46
1494104901.91,55974,15.69,73338.0,0.37,-3.75,-3.03,0,*42
1494104903.1,55975,15.69,73340.5,0.39,-4.41,-3.47,0,*4D
1494104904.33,55976,15.69,73338.0,0.37,-3.51,-3.11,0,*45
1494104905.54,55977,15.69,73342.3,0.39,-2.59,-2.31,0,*40
1494104906.74,55978,15.69,73344.5,0.39,-2.59,-2.19,0,*45
1494104907.95,55979,15.69,73344.3,0.39,-2.71,-2.31,0,*44
1494104909.18,55980,15.69,73344.3,0.41,-2.55,-2.19,0,*41
1494104910.4,55981,15.69,73342.8,0.41,-2.15,-1.95,0,*43